{"data":{"norad_id":69185,"intl_designator":"2026-114D","name":"STARLINK-37237","alt_names":[],"object_type":"PAYLOAD","status":"ACTIVE","operator":null,"country":"US","launch_date":"2026-05-25","launch_site_code":"AFETR","launch_vehicle":null,"mission":null,"orbit_class":"UNKNOWN","rcs_meters":null,"size_class":null,"mass_kg":null,"dimensions":null,"purposes":["comms"],"wikipedia_slug":null,"has_3d_model":false,"image_url":null,"decayed_at":null,"tle_current":{"epoch":"2026-09-19T20:33:38.392704Z","epoch_age_seconds":82592,"freshness":"FRESH","line1":"1 69185U 26114D   26262.85669436  .00020330  00000+0  61097-3 0  9991","line2":"2 69185  53.1594 117.0132 0002505  73.3468 286.7809 15.34411539 19349","mean_motion":15.34411539,"eccentricity":0.0002505,"inclination_deg":53.1594,"raan_deg":117.0132,"arg_perigee_deg":73.3468,"mean_anomaly_deg":286.7809,"bstar":0.00061097,"rev_number":1934,"period_min":93.847052332419,"perigee_km":460.95532219331,"apogee_km":464.38256597129,"semimajor_km":6840.8059440823,"source":"CELESTRAK","updated_at":"2026-09-20T09:00:44.095985Z"}}}